Regional Weather Roundup
Issued by NWS

Home | Current Version | Previous Version | Graphics & Text | Print | Product List | Glossary On
Versions: 1 2 3 4 5 6 7 8 9 10 11 12 13 14 15 16 17 18 19 20 21 22 23 24 25 26 27 28 29 30 31 32 33 34 35 36 37 38 39 40 41 42 43 44 45 46 47 48 49 50
000
ASUS43 KLOT 272303
RWRIL

ILLINOIS REGIONAL WEATHER ROUNDUP
NATIONAL WEATHER SERVICE CHICAGO/ROMEOVILLE IL
600 PM CDT FRI MAY 27 2016

NOTE: "FAIR" INDICATES FEW OR NO CLOUDS BELOW 12,000 FEET WITH NO
SIGNIFICANT WEATHER AND/OR OBSTRUCTIONS TO VISIBILITY.

* THESE STATIONS ARE NOT UNDER NWS QUALITY CONTROL. THEY ALSO MAY NOT
  REPORT WEATHER SUCH AS PRECIPITATION OR FOG.

ILZ001-002-007-009-015-016-024-280000-
NORTHWEST ILLINOIS

CITY           SKY/WX    TMP DP  RH WIND       PRES   REMARKS
MOLINE         MOSUNNY   79  67  66 S13       29.74F HX  81
STERLING*      PTSUNNY   77  68  73 VRB6      29.77F
$$

ILZ003-004-008-010-011-017-018-280000-
NORTH CENTRAL ILLINOIS

CITY           SKY/WX    TMP DP  RH WIND       PRES   REMARKS
ROCKFORD       PTSUNNY   77  67  71 SW9       29.81F
FREEPORT*      CLOUDY    75  67  77 S14       29.79F
ROCHELLE*      CLOUDY    78  67  69 S16       29.80F HX  80
$$

ILZ005-006-012>014-019>023-280000-
NORTHEAST ILLINOIS

CITY           SKY/WX    TMP DP  RH WIND       PRES   REMARKS
CHICAGO-OHARE  CLOUDY    79  65  62 S13       29.81F HX  81
CHICAGO-MIDWAY CLOUDY    77  68  73 S12       29.82F
AURORA         CLOUDY    75  68  78 S10       29.82F
LANSING*       CLOUDY    74  69  83 S8G17     29.84F
WAUKEGAN       CLOUDY    68  66  93 SE8       29.83F
DUPAGE AIRPORT RAIN      75  68  78 SW10      29.82F
WHEELING       PTSUNNY   74  67  78 SW3       29.83F
NORTHERLY ISL    N/A     69  66  90 SE9         N/A
NORTHERLY ISL    N/A     69  66  90 SE9         N/A
$$

LMZ740>746-280000-
SOUTHERN LAKE MICHIGAN

STATION/POSITION SKY/WX   TEMP    WIND        PRES    VSBY  WAVE
                          AIR SEA DIR/SP/G                  HT/PER
                          (F)     (DEG/KT/KT) (MB)    (MI)  (FT/S)
SOUTHERN BUOY              57 51  100/ 10/ 12 1010.3          0
WILMETTE HARBOR            61 59  140/ 10/ 12   N/A           1/ 2
HARRISON CRIB              70     150/ 13/ 14   N/A
BURNHAM HARBOR             71     150/ 10/ 12   N/A
CALUMET HARBOR             76                 1009.9F
BURNS HARBOR               72     180/  8/ 14 1011.9S
MICHIGAN CITY              70     190/ 12/ 13   N/A
MICHIGAN CITY 6N           66 59  210/ 12/ 17   N/A           1/ 2
ST. JOSEPH                 73 63  180/ 12/ 23   N/A           1/ 2
$$

ILZ025>027-034>036-040-047-049-050-058-095>099-280000-
WEST-CENTRAL ILLINOIS

CITY           SKY/WX    TMP DP  RH WIND       PRES   REMARKS
QUINCY         PTSUNNY   78  68  71 SE13      29.74F HX  80
MACOMB*        MOSUNNY   77  69  74 S14       29.78F
PITTSFIELD*    CLOUDY    77  71  83 SE10      29.78F
$$

ILZ028>032-037-038-041>044-048-051>054-059>061-280000-
CENTRAL ILLINOIS

CITY           SKY/WX    TMP DP  RH WIND       PRES   REMARKS
BLOOMINGTON    PTSUNNY   77  69  76 S16       29.84F
DECATUR        HVY RAIN  69  65  86 S13G23    29.85S FOG
PEORIA         PTSUNNY   78  67  68 S15       29.79F HX  80
SPRINGFIELD    CLOUDY    77  68  73 S12       29.81F
TAYLORVILLE    NOT AVBL
$$

ILZ033-039-045-046-055>057-062-063-280000-
EAST-CENTRAL ILLINOIS

CITY           SKY/WX    TMP DP  RH WIND       PRES   REMARKS
CHAMPAIGN      RAIN      71  67  87 S14       29.87S FOG
MATTOON        PTSUNNY   75  67  76 S12       29.87R
$$

ILZ079-100>102-280000-
SOUTHWEST ILLINOIS

CITY           SKY/WX    TMP DP  RH WIND       PRES   REMARKS
ALTON          LGT RAIN  73  68  83 S18       29.82S
BELLEVILLE     LGT RAIN  72  72 100 E6        29.82S
CAHOKIA*       LGT RAIN  74  70  87 S12       29.80F
SPARTA*        DRIZZLE   70  68  93 S10       29.86F
$$

ILZ064>066-069>071-074>076-080>082-084>086-088>090-092>094-280000-
SOUTH-CENTRAL ILLINOIS

CITY           SKY/WX    TMP DP  RH WIND       PRES   REMARKS
CARBONDALE     CLOUDY    71  67  87 S8        29.87F
MT. VERNON     CLOUDY    70  63  78 S7        29.90R
SALEM*         LGT RAIN  71  67  89 S14       29.88S
$$

ILZ067-068-072-073-078-083-087-091-280000-
SOUTHEAST ILLINOIS

CITY           SKY/WX    TMP DP  RH WIND       PRES   REMARKS
LAWRENCEVILLE  CLOUDY    83  64  52 S22G28    29.89S HX  84
FLORA*         CLOUDY    73  70  92 SE7       29.88F
HARRISBURG*    CLOUDY    78  70  75 SW7       29.89R HX  80
ROBINSON*      CLOUDY    78  65  64 S14       29.89S HX  80
$$

ABBREVIATIONS USED IN REMARKS
   TC - TEMPERATURE IN CELSIUS
  WCI - WIND CHILL INDEX
   HX - HEAT INDEX
  VSB - VISIBILITY
$$





USA.gov is the U.S. government's official web portal to all federal, state and local government web resources and services.